This demonstration page uses our WeatherBlox Daily Observations layout. Learn more.

Left ArrowRight Arrow

38.20091, -84.87328

Hourly Observations for July 11, 2021

Temp ( °F °C ) Dew Point ( °F °C ) Humidity (%) Winds ( mph kmh ) Pressure ( in mb ) Visibility ( mi km ) Precip ( " mm )
12:00 am 00:00 Cloudy 72 22.2 70 21.1 94 94 SE 10 17 29.87 1012 N/A 0.00 0.00
2:53 am 02:53 Mostly Clear 70 21.1 68 20 93 93 S 9 15 29.87 1011 N/A 0.03 0.76
3:53 am 03:53 Cloudy 69 20.6 67 19.4 93 93 SSE 8 13 29.85 1011 N/A 0.00 0.00
4:14 am 04:14 Cloudy 69 20.6 67 19.4 93 93 SSE 7 11 29.85 1011 N/A 0.00 0.00
4:23 am 04:23 Mostly Cloudy 69 20.6 67 19.4 93 93 SSE 8 13 29.85 1011 N/A 0.00 0.00
4:53 am 04:53 Mostly Cloudy 69 20.6 67 19.4 93 93 SSE 9 15 29.84 1010 N/A 0.00 0.00
5:42 am 05:42 Mostly Cloudy with Light Rain 69 20.6 67 19.4 93 93 SW 3 6 29.84 1010 N/A 0.00 0.00
5:53 am 05:53 Mostly Cloudy with Rain 69 20.6 67 19.4 93 93 S 5 7 29.83 1010 N/A 0.02 0.51
6:09 am 06:09 Mostly Cloudy with Light Rain 69 20.6 67 19.4 93 93 SSW 5 7 29.84 1010 N/A 0.04 1.02
6:53 am 06:53 Mostly Cloudy with Rain 69 20.6 68 20 96 96 SSE 12 19 29.80 1009 N/A 0.14 3.56
7:32 am 07:32 Partly Cloudy 70 21.1 69 20.6 97 97 S 9 15 29.82 1010 N/A 0.03 0.76
7:51 am 07:51 Mostly Cloudy 72 22 70 21 94 94 S 7 11 29.84 1010 N/A 0.03 0.76
7:53 am 07:53 Mostly Cloudy 71 21.7 69 20.6 94 94 S 9 15 29.84 1010 N/A 0.03 0.76
8:21 am 08:21 Cloudy 72 22.2 70 21.1 94 94 S 6 9 29.84 1011 N/A 0.00 0.00
8:53 am 08:53 Cloudy 73 22.8 71 21.7 94 94 SSW 7 11 29.86 1011 N/A 0.00 0.00
9:24 am 09:24 Cloudy 74 23.3 71 21.7 91 91 SW 10 17 29.87 1012 N/A 0.00 0.00
9:35 am 09:35 Cloudy 74 23.3 71 21.7 91 91 SW 12 19 29.88 1012 10 16 0.00 0.00
9:53 am 09:53 Cloudy with Light Rain 74 23.3 70 21.1 88 88 WSW 12 19 29.89 1012 9 14 0.00 0.00
10:02 am 10:02 Cloudy with Light Rain 73 22.8 71 21.7 94 94 WSW 10 17 29.88 1012 8 13 0.00 0.00
10:53 am 10:53 Cloudy 74 23.3 71 21.7 91 91 SW 9 15 29.90 1012 9 14 0.01 0.25
11:27 am 11:27 Cloudy 74 23.3 72 22.2 94 94 SW 7 11 29.88 1012 7 11 0.00 0.00
11:53 am 11:53 Cloudy 75 23.9 72 22.2 90 90 SSW 7 11 29.89 1012 10 16 0.00 0.00
12:08 pm 12:08 Cloudy 75 23.9 72 22.2 90 90 SSW 5 7 29.88 1012 10 16 0.00 0.00
12:53 pm 12:53 Mostly Cloudy 78 25.6 73 22.8 85 85 S 8 13 29.90 1012 10 16 0.00 0.00
1:45 pm 13:45 Mostly Cloudy 81 27.2 73 22.8 77 77 SW 13 20 29.90 1013 10 16 0.00 0.00
1:53 pm 13:53 Mostly Cloudy 80 26.7 72 22.2 76 76 SW 16 26 29.91 1013 10 16 0.00 0.00
2:03 pm 14:03 Mostly Cloudy 80 26.7 71 21.7 74 74 SSW 13 20 29.90 1013 10 16 0.00 0.00
2:51 pm 14:51 Mostly Cloudy 81 27 72 22 74 74 W 10 17 29.90 1013 10 16 0.00 0.00
2:53 pm 14:53 Mostly Cloudy 78 25.6 71 21.7 79 79 WSW 10 17 29.91 1013 10 16 0.00 0.00
3:00 pm 15:00 Cloudy with Heavy Rain 75 23.9 71 21.7 88 88 W 8 13 29.91 1013 2 3 0.10 2.54
3:09 pm 15:09 Cloudy with Light Rain 76 24.4 72 22.2 88 88 SW 7 11 29.90 1012 3 5 0.12 3.05
3:24 pm 15:24 Mostly Cloudy 78 25.6 74 23.3 87 87 WSW 8 13 29.90 1012 10 16 0.12 3.05
3:53 pm 15:53 Mostly Cloudy with Light Rain 79 26.1 72 22.2 79 79 S 10 17 29.90 1013 10 16 0.12 3.05
4:53 pm 16:53 Cloudy with Light Rain 77 25 74 23.3 90 90 SW 9 15 29.90 1013 4 6 0.04 1.02
4:56 pm 16:56 Cloudy with Heavy Rain 77 25 74 23.3 90 90 SW 12 19 29.89 1012 2 2 0.06 1.52
5:14 pm 17:14 Cloudy with Light Rain 75 23.9 72 22.2 90 90 SSW 7 11 29.90 1013 3 5 0.15 3.81
5:53 pm 17:53 Cloudy 76 24.4 73 22.8 91 91 S 3 6 29.90 1013 10 16 0.16 4.06
6:53 pm 18:53 Sunny 78 25.6 73 22.8 85 85 Calm 29.89 1012 10 16 0.00 0.00
7:53 pm 19:53 Sunny 78 25.6 73 22.8 85 85 S 3 6 29.90 1013 10 16 0.00 0.00
8:53 pm 20:53 Cloudy 76 24.4 71 21.7 85 85 SSW 3 6 29.91 1013 10 16 0.00 0.00
9:42 pm 21:42 Cloudy 75 23.9 72 22.2 90 90 S 3 6 29.92 1013 10 16 0.00 0.00
9:53 pm 21:53 Mostly Cloudy 75 23.9 71 21.7 88 88 S 5 7 29.93 1014 10 16 0.00 0.00
10:53 pm 22:53 Cloudy 75 23.9 71 21.7 88 88 S 8 13 29.95 1014 10 16 0.00 0.00
11:26 pm 23:26 Mostly Cloudy 74 23.3 71 21.7 91 91 S 7 11 29.94 1014 10 16 0.00 0.00
11:50 pm 23:50 Mostly Clear 73 23 72 22 94 94 SSW 5 7 29.95 1014 10 16 0.00 0.00
11:53 pm 23:53 Mostly Clear 74 23.3 71 21.7 91 91 SSW 5 7 29.96 1014 10 16 0.00 0.00

Powered by AerisWeather